[[{"header":{"parameterUnit":"m.s-1","parameterCategory":2,"la1":30.2991,"la2":30.254,"lo1":-89.0895,"lo2":-89.0444,"dx":0.0017,"dy":0.0017,"nx":28,"ny":28,"refTime":"2022-11-15T09:00:00:Z","depth":"0","parameterNumber":2,"parameterNumberName":"U-component_of_CURRENTS"},"data":[0,0,0,0,0,0,0,0,0,0,0,0,0,0,0,0,0,0,0,0,0,0,0,0,0,0,0,0,0,0,0,0,0,0,0,0,0,0,0,0,0,0,0,0,0,0,0,0,0,0,0,0,0,0,0,0,0,0,-0.2216,-0.2216,0,-0.223,-0.223,-0.223,-0.2202,-0.2201,-0.22,-0.22,-0.2183,-0.2183,-0.2184,0,0,0,0,0,0,0,0,0,0,0,0,0,-0.216,-0.2161,-0.2216,-0.2216,-0.2217,-0.223,-0.223,-0.223,-0.2202,-0.2201,-0.22,-0.2199,-0.2183,-0.2183,-0.2184,0,0,0,0,0,0,0,0,0,0,0,0,0,-0.2178,-0.2162,-0.2216,-0.2206,-0.2206,-0.223,-0.223,-0.223,-0.2202,-0.2201,-0.22,-0.2199,-0.2183,-0.2183,-0.2184,-0.2205,0,0,-0.2184,-0.2185,0,0,0,0,0,0,0,0,-0.2177,-0.218,-0.2207,-0.2207,-0.2207,-0.2215,-0.2204,-0.2221,-0.2202,-0.2201,-0.22,-0.2199,-0.2194,-0.2193,-0.2194,-0.2205,-0.2204,-0.2185,-0.2185,-0.2185,-0.2185,0,0,0,0,0,0,0,-0.2176,-0.2179,-0.2219,-0.2208,-0.2208,-0.22,-0.2201,-0.2207,-0.22,-0.2201,-0.2199,-0.2206,-0.2193,-0.2194,-0.2194,-0.2204,-0.2184,-0.2185,-0.2185,-0.2185,-0.2223,-0.2224,0,0,0,0,0,0,-0.2181,-0.2178,-0.2218,-0.2219,-0.2192,-0.2202,-0.2203,-0.2211,-0.22,-0.2199,-0.2206,-0.2204,-0.2194,-0.2194,-0.2193,-0.2215,-0.2185,-0.2185,-0.2185,-0.2223,-0.2224,-0.2225,0,0,0,0,0,0,-0.218,-0.2185,-0.2218,-0.2201,-0.2205,-0.2204,-0.2214,-0.2212,-0.2211,-0.2206,-0.2203,-0.2207,-0.2193,-0.2193,-0.2198,-0.2214,-0.2185,-0.2185,-0.2222,-0.2223,-0.2224,-0.2262,0,0,0,0,0,0,-0.2178,-0.2184,-0.2188,-0.2201,-0.2206,-0.2233,-0.2215,-0.2213,-0.2218,-0.2215,-0.2206,-0.2203,-0.2193,-0.2198,-0.2199,-0.2214,-0.2186,-0.2221,-0.2222,-0.2224,-0.2259,-0.2264,-0.2268,0,0,0,0,0,-0.2176,-0.2186,-0.2188,-0.2193,-0.2213,-0.2234,-0.2235,-0.2229,-0.2219,-0.2223,-0.2216,-0.2203,-0.2209,-0.2199,-0.2199,-0.2216,-0.222,-0.2222,-0.2224,-0.2257,-0.2263,-0.2268,0,0,0,0,0,0,-0.2161,-0.2185,-0.2187,-0.2203,-0.2219,-0.223,-0.2233,-0.2234,-0.2232,-0.2226,-0.2215,-0.2212,-0.2225,-0.2217,-0.2207,-0.2232,-0.2212,-0.2215,-0.2238,-0.2243,-0.2248,-0.2246,-0.2186,0,0,0,0,0,-0.2163,-0.2174,-0.2198,-0.2208,-0.2218,-0.2227,-0.2233,-0.2235,-0.2239,-0.2236,-0.2231,-0.2228,-0.2236,-0.2235,-0.2238,-0.2252,-0.2244,-0.2263,-0.2268,-0.2271,-0.2271,-0.2277,-0.2282,-0.2231,-0.2231,-0.2231,0,0,-0.2159,-0.2174,-0.2179,-0.2206,-0.2215,-0.2236,-0.2227,-0.2241,-0.2257,-0.2236,-0.2247,-0.2245,-0.2244,-0.2259,-0.2264,-0.2252,-0.2283,-0.2274,-0.2277,-0.2274,-0.228,-0.2285,-0.2289,-0.2232,-0.2232,-0.2232,0,0,-0.216,-0.2172,-0.2183,-0.2203,-0.2227,-0.2238,-0.2245,-0.2262,-0.2265,-0.2282,-0.2274,-0.2282,-0.2286,-0.2292,-0.2296,-0.2328,-0.2308,-0.2327,-0.2346,-0.2352,-0.2356,-0.236,-0.2359,-0.2362,-0.2327,-0.2327,-0.2327,0,-0.2153,-0.2173,-0.2189,-0.2212,-0.2229,-0.2242,-0.2263,-0.2277,-0.2292,-0.2301,-0.2287,-0.2306,-0.2305,-0.2331,-0.2339,-0.2339,-0.2332,-0.2325,-0.2358,-0.2361,-0.2364,-0.2362,-0.2365,-0.2329,-0.2329,-0.2328,-0.2328,0,-0.2165,-0.2186,-0.2196,-0.2228,-0.2251,-0.227,-0.23,-0.2316,-0.2321,-0.2332,-0.2354,-0.2354,-0.2361,-0.2369,-0.2362,-0.2388,-0.2373,-0.2365,-0.2343,-0.2371,-0.2367,-0.237,-0.2332,-0.2331,-0.233,-0.233,0,0,-0.2133,-0.2192,-0.2194,-0.2214,-0.2261,-0.2277,-0.2317,-0.235,-0.237,-0.238,-0.2404,-0.2419,-0.2411,-0.2415,-0.2412,-0.2419,-0.2437,-0.2397,-0.2397,-0.2394,-0.2442,-0.2411,-0.241,-0.2429,-0.2429,-0.243,-0.2431,0,-0.2134,-0.2174,-0.2208,-0.2244,-0.2267,-0.2305,-0.2339,-0.2373,-0.2397,-0.2422,-0.2433,-0.2448,-0.2432,-0.2434,-0.2441,-0.2444,-0.2443,-0.2436,-0.2416,-0.2416,-0.2383,-0.2412,-0.2324,-0.2316,-0.2433,-0.2434,-0.2434,0,-0.2129,-0.2158,-0.2194,-0.2253,-0.2266,-0.2289,-0.2342,-0.2377,-0.2428,-0.2445,-0.2467,-0.2475,-0.2498,-0.2472,-0.2484,-0.2477,-0.2457,-0.2452,-0.2452,-0.241,-0.2389,-0.2307,-0.2315,-0.2284,-0.2437,-0.2437,-0.2437,0,-0.2082,-0.2146,-0.217,-0.219,-0.2259,-0.2278,-0.2312,-0.2372,-0.2406,-0.2456,-0.248,-0.2505,-0.2514,-0.2508,-0.25,-0.249,-0.2505,-0.249,-0.2442,-0.244,-0.2354,-0.2343,-0.2326,-0.2484,-0.2484,-0.2484,-0.2484,0,-0.2063,-0.2078,-0.2145,-0.2153,-0.2182,-0.2244,-0.228,-0.2323,-0.2391,-0.2426,-0.2475,-0.2505,-0.2521,-0.2535,-0.2516,-0.2492,-0.2516,-0.245,-0.2441,-0.2365,-0.2356,-0.2315,-0.2313,-0.2484,-0.2484,-0.2484,-0.2484,0,-0.1998,-0.2046,-0.2073,-0.2138,-0.2157,-0.2172,-0.2252,-0.2277,-0.2355,-0.2406,-0.2421,-0.2505,-0.2533,-0.2546,-0.2546,-0.2507,-0.2444,-0.2469,-0.2378,-0.2358,-0.2279,-0.2282,-0.2246,-0.2177,-0.2419,-0.2418,-0.2418,0,-0.1966,-0.1972,-0.2037,-0.2044,-0.2067,-0.2108,-0.213,-0.2231,-0.227,-0.2398,-0.2413,-0.2483,-0.2511,-0.2524,-0.2494,-0.2465,-0.2419,-0.234,-0.2304,-0.2267,-0.2265,-0.2258,-0.2201,-0.2206,-0.2204,-0.2202,-0.2201,0,-0.189,-0.1912,-0.1928,-0.1951,-0.1972,-0.201,-0.2059,-0.2093,-0.221,-0.2276,-0.2358,-0.2402,-0.2456,-0.2416,-0.2395,-0.2354,-0.2272,-0.23,-0.2282,-0.2117,-0.2086,-0.2016,-0.2216,-0.2184,-0.2186,-0.2187,-0.2188,-0.2188,-0.1815,-0.1807,-0.1825,-0.1835,-0.1864,-0.1881,-0.1876,-0.1965,-0.2026,-0.2116,-0.2234,-0.2302,-0.2316,-0.2299,-0.2247,-0.2139,-0.2176,-0.2062,-0.2075,-0.2076,-0.1989,-0.2155,-0.2104,-0.2105,-0.2106,-0.2107,-0.2108,0,-0.1709,-0.1701,-0.1705,-0.1711,-0.1693,-0.1753,-0.1796,-0.179,-0.1829,-0.198,-0.2059,-0.2163,-0.2112,-0.2115,-0.2039,-0.1935,-0.186,-0.1878,-0.1838,-0.1792,-0.1949,-0.1918,-0.1799,-0.1799,-0.1799,-0.1799,-0.1799,-0.1799,-0.1649,-0.1601,-0.16,-0.1527,-0.153,-0.1479,-0.1478,-0.1512,-0.1599,-0.1714,-0.1852,-0.2011,-0.2035,-0.2097,-0.1939,-0.1821,-0.1734,-0.1691,-0.1696,-0.1807,-0.1825,-0.1842,-0.1812,-0.1673,-0.1672,-0.1469,-0.1468,-0.1467]},{"header":{"parameterUnit":"m.s-1","parameterCategory":2,"la1":30.2991,"la2":30.254,"lo1":-89.0895,"lo2":-89.0444,"dx":0.0017,"dy":0.0017,"nx":28,"ny":28,"refTime":"2022-11-15T09:00:00:Z","depth":"0","parameterNumber":3,"parameterNumberName":"V-component_of_CURRENTS"},"data":[0,0,0,0,0,0,0,0,0,0,0,0,0,0,0,0,0,0,0,0,0,0,0,0,0,0,0,0,0,0,0,0,0,0,0,0,0,0,0,0,0,0,0,0,0,0,0,0,0,0,0,0,0,0,0,0,0,0,-0.0342,-0.0341,0,-0.0273,-0.0273,-0.0272,-0.023,-0.023,-0.023,-0.023,-0.0156,-0.0154,-0.0152,0,0,0,0,0,0,0,0,0,0,0,0,0,-0.04,-0.04,-0.0342,-0.0341,-0.034,-0.0274,-0.0273,-0.0272,-0.0231,-0.023,-0.023,-0.023,-0.0156,-0.0154,-0.0152,0,0,0,0,0,0,0,0,0,0,0,0,0,-0.0358,-0.04,-0.0342,-0.0311,-0.0308,-0.0274,-0.0273,-0.0271,-0.0231,-0.023,-0.023,-0.023,-0.0157,-0.0154,-0.0152,-0.0143,0,0,-0.0144,-0.0143,0,0,0,0,0,0,0,0,-0.0361,-0.0356,-0.0317,-0.0313,-0.0309,-0.026,-0.0266,-0.0228,-0.0231,-0.026,-0.023,-0.0229,-0.019,-0.0185,-0.0173,-0.0139,-0.0136,-0.0144,-0.0142,-0.0141,-0.014,0,0,0,0,0,0,0,-0.0364,-0.0359,-0.0315,-0.0316,-0.0311,-0.0288,-0.0282,-0.0259,-0.0228,-0.0258,-0.0254,-0.0246,-0.0188,-0.0176,-0.0171,-0.0135,-0.0144,-0.0141,-0.014,-0.0139,-0.0086,-0.0086,0,0,0,0,0,0,-0.0374,-0.0362,-0.0317,-0.0313,-0.0334,-0.0288,-0.0281,-0.0276,-0.0228,-0.0221,-0.0247,-0.0245,-0.0181,-0.0174,-0.0168,-0.016,-0.0141,-0.0138,-0.0137,-0.0086,-0.0086,-0.0086,0,0,0,0,0,0,-0.0375,-0.0371,-0.032,-0.0335,-0.0327,-0.0287,-0.0282,-0.0275,-0.0262,-0.022,-0.0212,-0.0241,-0.018,-0.0172,-0.0151,-0.0156,-0.0137,-0.0135,-0.0086,-0.0086,-0.0086,-0.0139,0,0,0,0,0,0,-0.0377,-0.0372,-0.0375,-0.0336,-0.0327,-0.0306,-0.0282,-0.0274,-0.0257,-0.0254,-0.0212,-0.0205,-0.0179,-0.0155,-0.0149,-0.0152,-0.0133,-0.0086,-0.0086,-0.0086,-0.0137,-0.0141,-0.0144,0,0,0,0,0,-0.038,-0.0385,-0.0375,-0.037,-0.0331,-0.0306,-0.0299,-0.0269,-0.0258,-0.0256,-0.0228,-0.0206,-0.0152,-0.0153,-0.0145,-0.0148,-0.0085,-0.0086,-0.0086,-0.0135,-0.014,-0.0144,0,0,0,0,0,0,-0.0411,-0.038,-0.0369,-0.0364,-0.034,-0.0299,-0.0294,-0.0273,-0.0249,-0.0247,-0.0209,-0.02,-0.0183,-0.0159,-0.0161,-0.0134,-0.0115,-0.0114,-0.0155,-0.0159,-0.0163,-0.0171,-0.0131,0,0,0,0,0,-0.042,-0.0418,-0.0383,-0.0381,-0.037,-0.0334,-0.032,-0.03,-0.0272,-0.0261,-0.0231,-0.0202,-0.0179,-0.0164,-0.014,-0.0126,-0.0096,-0.0122,-0.0125,-0.0129,-0.0129,-0.0093,-0.0094,-0.0088,-0.0088,-0.0088,0,0,-0.0432,-0.0415,-0.0414,-0.0388,-0.0366,-0.0359,-0.0325,-0.0309,-0.0303,-0.0257,-0.0244,-0.0215,-0.0178,-0.0163,-0.0153,-0.0143,-0.0115,-0.0129,-0.0133,-0.0131,-0.0094,-0.0094,-0.0095,-0.0088,-0.0088,-0.0088,0,0,-0.0456,-0.044,-0.0446,-0.043,-0.0403,-0.038,-0.0378,-0.034,-0.0323,-0.0305,-0.0273,-0.0249,-0.0211,-0.0186,-0.0169,-0.0178,-0.0137,-0.0169,-0.0192,-0.0157,-0.0157,-0.0157,-0.0123,-0.0119,-0.017,-0.017,-0.017,0,-0.0471,-0.0475,-0.0444,-0.0445,-0.0437,-0.0393,-0.0398,-0.0375,-0.0336,-0.0325,-0.0309,-0.0252,-0.0223,-0.02,-0.0202,-0.0187,-0.0159,-0.018,-0.0163,-0.0162,-0.0161,-0.0125,-0.0121,-0.0172,-0.0172,-0.0172,-0.0172,0,-0.0497,-0.0502,-0.0504,-0.0494,-0.0479,-0.0477,-0.0441,-0.0431,-0.0406,-0.0375,-0.0346,-0.0301,-0.0266,-0.0253,-0.023,-0.0208,-0.0188,-0.0174,-0.0154,-0.0164,-0.0126,-0.0121,-0.0176,-0.0175,-0.0174,-0.0174,0,0,-0.0528,-0.0525,-0.0526,-0.0536,-0.0507,-0.05,-0.0494,-0.0471,-0.0468,-0.0422,-0.0408,-0.0361,-0.0326,-0.0304,-0.0267,-0.0234,-0.0203,-0.0203,-0.02,-0.0174,-0.0123,-0.0079,-0.0068,-0.0184,-0.0183,-0.0183,-0.0101,0,-0.056,-0.0586,-0.0566,-0.0588,-0.06,-0.0565,-0.0564,-0.0536,-0.0502,-0.0477,-0.0418,-0.0389,-0.0347,-0.0332,-0.0292,-0.0225,-0.019,-0.0227,-0.0113,-0.0109,-0.0072,-0.006,-0.004,0.0038,-0.0095,-0.0094,-0.0093,0,-0.0591,-0.0607,-0.0637,-0.0649,-0.0649,-0.065,-0.0641,-0.063,-0.0581,-0.0555,-0.0505,-0.0451,-0.0392,-0.0359,-0.0246,-0.027,-0.0203,-0.0149,-0.0144,-0.0079,-0.0054,0.0029,0.0054,0.0186,-0.0084,-0.0084,-0.0085,0,-0.0636,-0.0656,-0.0686,-0.0688,-0.0689,-0.0696,-0.069,-0.0654,-0.065,-0.0595,-0.0582,-0.0496,-0.0454,-0.036,-0.0238,-0.0242,-0.0109,-0.0102,0.0002,0.0005,0.0058,0.0065,0.0222,-0.0026,-0.0026,-0.0026,-0.0027,0,-0.0679,-0.0703,-0.0712,-0.0729,-0.0768,-0.0742,-0.0763,-0.0745,-0.0714,-0.0713,-0.062,-0.0598,-0.0452,-0.0354,-0.0249,-0.0097,-0.0114,0.0005,0.0033,0.004,0.0045,0.0191,0.0249,-0.0023,-0.0024,-0.0025,-0.0025,0,-0.0721,-0.0726,-0.0768,-0.0785,-0.0791,-0.0816,-0.0822,-0.0837,-0.0794,-0.0789,-0.0775,-0.0665,-0.0531,-0.0376,-0.0212,-0.0109,0.012,0.008,0.0082,0.011,0.0326,0.0379,0.0586,0.0668,0.0206,0.0208,0.0209,0,-0.0743,-0.0769,-0.0814,-0.0845,-0.0854,-0.0883,-0.0908,-0.0885,-0.0892,-0.0835,-0.0836,-0.0702,-0.061,-0.0335,-0.0123,0.0087,0.0198,0.023,0.0227,0.0353,0.0433,0.0486,0.0543,0.0275,0.0277,0.0278,0.0279,0,-0.0787,-0.0803,-0.0839,-0.0909,-0.0947,-0.0994,-0.1015,-0.1034,-0.1004,-0.0991,-0.0934,-0.0851,-0.0564,-0.0311,-0.0016,0.012,0.0348,0.0267,0.0401,0.0509,0.0575,0.0661,0.0203,0.0293,0.0291,0.029,0.029,0.0289,-0.0812,-0.0857,-0.0906,-0.0971,-0.1024,-0.1084,-0.1121,-0.1145,-0.1163,-0.1131,-0.1018,-0.0893,-0.0478,-0.0053,0.0114,0.0487,0.0471,0.0585,0.064,0.0684,0.0767,0.0341,0.046,0.046,0.0459,0.0459,0.0459,0,-0.0837,-0.0891,-0.0963,-0.1043,-0.1114,-0.1124,-0.118,-0.1213,-0.1249,-0.1187,-0.1109,-0.0709,-0.0301,0.01,0.0637,0.0835,0.0896,0.0942,0.1019,0.106,0.0686,0.0692,0.0862,0.0862,0.0862,0.0862,0.0862,0.0862,-0.0853,-0.0926,-0.0974,-0.1098,-0.1153,-0.1235,-0.1267,-0.1317,-0.1289,-0.1179,-0.0994,-0.0822,-0.0199,0.0689,0.1181,0.1215,0.1381,0.1377,0.1472,0.1201,0.1171,0.1143,0.1164,0.1431,0.1431,0.183,0.1834,0.1836]}],[{"header":{"parameterUnit":"m.s-1","parameterCategory":2,"la1":30.2991,"la2":30.254,"lo1":-89.0895,"lo2":-89.0444,"dx":0.0017,"dy":0.0017,"nx":28,"ny":28,"refTime":"2022-11-15T09:00:00:Z","depth":"2","parameterNumber":2,"parameterNumberName":"U-component_of_CURRENTS"},"data":[0,0,0,0,0,0,0,0,0,0,0,0,0,0,0,0,0,0,0,0,0,0,0,0,0,0,0,0,0,0,0,0,0,0,0,0,0,0,0,0,0,0,0,0,0,0,0,0,0,0,0,0,0,0,0,0,0,0,-0.2167,-0.2167,0,-0.2182,-0.2182,-0.2182,-0.2157,-0.2157,-0.2156,-0.2156,-0.2142,-0.2142,-0.2142,0,0,0,0,0,0,0,0,0,0,0,0,0,-0.2113,-0.2114,-0.2167,-0.2167,-0.2168,-0.2182,-0.2182,-0.2182,-0.2158,-0.2157,-0.2156,-0.2155,-0.2142,-0.2142,-0.2142,0,0,0,0,0,0,0,0,0,0,0,0,0,-0.2131,-0.2114,-0.2167,-0.2159,-0.2159,-0.2182,-0.2182,-0.2182,-0.2158,-0.2157,-0.2156,-0.2155,-0.2142,-0.2142,-0.2143,-0.2162,0,0,-0.2143,-0.2144,0,0,0,0,0,0,0,0,-0.213,-0.2132,-0.216,-0.216,-0.2159,-0.2169,-0.2158,-0.2175,-0.2158,-0.2155,-0.2156,-0.2155,-0.2151,-0.215,-0.2152,-0.2162,-0.2161,-0.2143,-0.2144,-0.2144,-0.2144,0,0,0,0,0,0,0,-0.2129,-0.2132,-0.217,-0.2161,-0.216,-0.2154,-0.2155,-0.2161,-0.2155,-0.2156,-0.2155,-0.2161,-0.215,-0.2152,-0.2151,-0.2161,-0.2143,-0.2144,-0.2144,-0.2144,-0.2183,-0.2184,0,0,0,0,0,0,-0.2133,-0.2131,-0.217,-0.2171,-0.2145,-0.2156,-0.2157,-0.2165,-0.2156,-0.2155,-0.2161,-0.2159,-0.2152,-0.2151,-0.2151,-0.2174,-0.2144,-0.2144,-0.2144,-0.2182,-0.2183,-0.2184,0,0,0,0,0,0,-0.2132,-0.2137,-0.2169,-0.2153,-0.2157,-0.2158,-0.2167,-0.2166,-0.2166,-0.2161,-0.2158,-0.2163,-0.2151,-0.215,-0.2157,-0.2173,-0.2144,-0.2144,-0.2181,-0.2182,-0.2183,-0.2221,0,0,0,0,0,0,-0.2131,-0.2136,-0.2141,-0.2153,-0.2158,-0.2184,-0.2168,-0.2167,-0.2173,-0.217,-0.2162,-0.216,-0.215,-0.2157,-0.2157,-0.2173,-0.2145,-0.218,-0.2181,-0.2183,-0.2219,-0.2224,-0.2228,0,0,0,0,0,-0.2129,-0.2138,-0.2141,-0.2145,-0.2165,-0.2185,-0.2187,-0.2182,-0.2174,-0.2178,-0.2172,-0.216,-0.2167,-0.2158,-0.2158,-0.2175,-0.2179,-0.2181,-0.2183,-0.2217,-0.2223,-0.2228,0,0,0,0,0,0,-0.2115,-0.2137,-0.214,-0.2155,-0.2171,-0.2182,-0.2185,-0.2187,-0.2187,-0.2182,-0.2171,-0.2169,-0.2183,-0.2175,-0.2165,-0.2191,-0.2171,-0.2174,-0.2197,-0.2203,-0.2207,-0.2205,-0.2145,0,0,0,0,0,-0.2117,-0.2127,-0.215,-0.2161,-0.217,-0.218,-0.2186,-0.2188,-0.2193,-0.2191,-0.2188,-0.2186,-0.2193,-0.2193,-0.2197,-0.2211,-0.2203,-0.2222,-0.2227,-0.2231,-0.223,-0.2236,-0.2241,-0.219,-0.219,-0.219,0,0,-0.2113,-0.2128,-0.2132,-0.2159,-0.2168,-0.2188,-0.218,-0.2195,-0.2211,-0.2191,-0.2203,-0.2202,-0.2201,-0.2217,-0.2222,-0.221,-0.2242,-0.2233,-0.2236,-0.2234,-0.2239,-0.2244,-0.2248,-0.2191,-0.2191,-0.2191,0,0,-0.2115,-0.2127,-0.2138,-0.2157,-0.218,-0.2191,-0.2198,-0.2215,-0.222,-0.2237,-0.223,-0.2239,-0.2244,-0.2251,-0.2254,-0.2286,-0.2267,-0.2286,-0.2305,-0.2311,-0.2315,-0.2319,-0.2318,-0.2321,-0.2286,-0.2286,-0.2286,0,-0.2109,-0.2129,-0.2144,-0.2165,-0.2182,-0.2195,-0.2216,-0.223,-0.2246,-0.2255,-0.2243,-0.2263,-0.2263,-0.2288,-0.2297,-0.2297,-0.229,-0.2284,-0.2317,-0.232,-0.2323,-0.2321,-0.2324,-0.2288,-0.2288,-0.2287,-0.2287,0,-0.212,-0.2141,-0.215,-0.2182,-0.2204,-0.2222,-0.2252,-0.2269,-0.2275,-0.2286,-0.2309,-0.2311,-0.2318,-0.2327,-0.232,-0.2346,-0.2331,-0.2323,-0.2302,-0.233,-0.2326,-0.2329,-0.2291,-0.229,-0.2289,-0.2289,0,0,-0.2091,-0.2147,-0.2149,-0.2168,-0.2215,-0.223,-0.2269,-0.2302,-0.2322,-0.2334,-0.2358,-0.2374,-0.2368,-0.2371,-0.237,-0.2376,-0.2395,-0.2356,-0.2356,-0.2353,-0.24,-0.2368,-0.2367,-0.2388,-0.2388,-0.2389,-0.239,0,-0.2092,-0.213,-0.2163,-0.2199,-0.222,-0.2258,-0.229,-0.2324,-0.2349,-0.2375,-0.2386,-0.2403,-0.2388,-0.2391,-0.2398,-0.2402,-0.2402,-0.2394,-0.2375,-0.2374,-0.234,-0.2369,-0.2157,-0.2139,-0.2392,-0.2393,-0.2393,0,-0.2087,-0.2115,-0.215,-0.2207,-0.222,-0.2243,-0.2295,-0.2329,-0.238,-0.2398,-0.242,-0.2429,-0.2452,-0.2428,-0.244,-0.2434,-0.2415,-0.2411,-0.2411,-0.2367,-0.2346,-0.2151,-0.2133,-0.2396,-0.2396,-0.2396,-0.2395,0,-0.2043,-0.2104,-0.2128,-0.2147,-0.2213,-0.2233,-0.2267,-0.2325,-0.2359,-0.2409,-0.2433,-0.2458,-0.2469,-0.2464,-0.2457,-0.2447,-0.2462,-0.2448,-0.2399,-0.2396,-0.2206,-0.2186,-0.2442,-0.2442,-0.2442,-0.2442,-0.2442,0,-0.2024,-0.204,-0.2105,-0.2113,-0.2141,-0.2201,-0.2237,-0.2279,-0.2346,-0.2379,-0.2429,-0.2458,-0.2475,-0.2489,-0.2472,-0.2447,-0.2472,-0.2406,-0.2397,-0.2214,-0.2196,-0.2409,-0.2405,-0.2442,-0.2442,-0.2442,-0.2442,0,-0.1962,-0.2008,-0.2035,-0.2099,-0.2117,-0.2133,-0.2211,-0.2235,-0.2311,-0.236,-0.2376,-0.2457,-0.2484,-0.2498,-0.2499,-0.2461,-0.2447,-0.2423,-0.2209,-0.2176,-0.2371,-0.2369,-0.2374,-0.2373,-0.2372,-0.2372,-0.2371,0,-0.1931,-0.1937,-0.2001,-0.2009,-0.2031,-0.2072,-0.2094,-0.2192,-0.2229,-0.2352,-0.2365,-0.2433,-0.2456,-0.2468,-0.2417,-0.2383,-0.2434,-0.2163,-0.2112,-0.2374,-0.2365,-0.2365,-0.2364,-0.187,-0.1865,-0.1861,-0.1858,0,-0.1857,-0.188,-0.1895,-0.1919,-0.194,-0.1977,-0.2024,-0.2056,-0.2168,-0.2228,-0.2305,-0.2343,-0.2373,-0.2258,-0.2228,-0.2176,-0.2158,-0.2087,-0.2401,-0.1936,-0.1903,-0.1894,-0.1908,-0.1824,-0.1827,-0.183,-0.1832,-0.1833,-0.1785,-0.1777,-0.1796,-0.1806,-0.1835,-0.1851,-0.1845,-0.1922,-0.1975,-0.2032,-0.2154,-0.2152,-0.2142,-0.2018,-0.192,-0.184,-0.2002,-0.1878,-0.1887,-0.1901,-0.1859,-0.1828,-0.1726,-0.1729,-0.1731,-0.1733,-0.1735,0,-0.168,-0.1675,-0.1678,-0.1685,-0.1666,-0.1727,-0.1766,-0.1741,-0.1762,-0.1848,-0.1896,-0.1736,-0.1668,-0.1674,-0.1501,-0.1472,-0.1425,-0.1398,-0.1315,-0.1351,-0.1383,-0.1312,-0.1034,-0.1032,-0.103,-0.1028,0,0,-0.1621,-0.1573,-0.1573,-0.1502,-0.1507,-0.1453,-0.145,-0.1448,-0.148,-0.1465,-0.1475,-0.1607,-0.1647,-0.1349,-0.1267,-0.1124,-0.1225,-0.1064,-0.1627,-0.1568,-0.1597,-0.1663,-0.1596,0,0,0,0,0]},{"header":{"parameterUnit":"m.s-1","parameterCategory":2,"la1":30.2991,"la2":30.254,"lo1":-89.0895,"lo2":-89.0444,"dx":0.0017,"dy":0.0017,"nx":28,"ny":28,"refTime":"2022-11-15T09:00:00:Z","depth":"2","parameterNumber":3,"parameterNumberName":"V-component_of_CURRENTS"},"data":[0,0,0,0,0,0,0,0,0,0,0,0,0,0,0,0,0,0,0,0,0,0,0,0,0,0,0,0,0,0,0,0,0,0,0,0,0,0,0,0,0,0,0,0,0,0,0,0,0,0,0,0,0,0,0,0,0,0,-0.0235,-0.0234,0,-0.0168,-0.0167,-0.0167,-0.0128,-0.0128,-0.0127,-0.0127,-0.0056,-0.0055,-0.0053,0,0,0,0,0,0,0,0,0,0,0,0,0,-0.0292,-0.0291,-0.0235,-0.0234,-0.0233,-0.0168,-0.0167,-0.0166,-0.0128,-0.0128,-0.0127,-0.0127,-0.0057,-0.0055,-0.0053,0,0,0,0,0,0,0,0,0,0,0,0,0,-0.0251,-0.0291,-0.0235,-0.0206,-0.0202,-0.0168,-0.0167,-0.0166,-0.0128,-0.0128,-0.0127,-0.0127,-0.0058,-0.0055,-0.0053,-0.0042,0,0,-0.0045,-0.0044,0,0,0,0,0,0,0,0,-0.0253,-0.0249,-0.0211,-0.0208,-0.0204,-0.0156,-0.0161,-0.0124,-0.0128,-0.0156,-0.0127,-0.0127,-0.0089,-0.0084,-0.0073,-0.0039,-0.0036,-0.0044,-0.0043,-0.0042,-0.0041,0,0,0,0,0,0,0,-0.0256,-0.0251,-0.0209,-0.021,-0.0206,-0.0183,-0.0178,-0.0154,-0.0125,-0.0154,-0.0151,-0.0143,-0.0087,-0.0075,-0.0071,-0.0035,-0.0044,-0.0042,-0.0041,-0.004,0.0012,0.0012,0,0,0,0,0,0,-0.0266,-0.0254,-0.0211,-0.0207,-0.0228,-0.0183,-0.0176,-0.0172,-0.0126,-0.0118,-0.0143,-0.0142,-0.008,-0.0074,-0.0068,-0.006,-0.0042,-0.0039,-0.0038,0.0012,0.0012,0.0012,0,0,0,0,0,0,-0.0268,-0.0263,-0.0213,-0.0228,-0.0221,-0.0182,-0.0177,-0.0171,-0.0159,-0.0118,-0.011,-0.0139,-0.0079,-0.0072,-0.0052,-0.0057,-0.0038,-0.0036,0.0012,0.0012,0.0012,-0.0041,0,0,0,0,0,0,-0.027,-0.0264,-0.0267,-0.0229,-0.022,-0.02,-0.0177,-0.0169,-0.0154,-0.0151,-0.0111,-0.0104,-0.0078,-0.0056,-0.0049,-0.0053,-0.0034,0.0013,0.0012,0.0012,-0.0039,-0.0043,-0.0046,0,0,0,0,0,-0.0272,-0.0278,-0.0268,-0.0263,-0.0225,-0.02,-0.0193,-0.0165,-0.0154,-0.0153,-0.0127,-0.0105,-0.0053,-0.0054,-0.0046,-0.005,0.0013,0.0012,0.0012,-0.0037,-0.0042,-0.0046,0,0,0,0,0,0,-0.0303,-0.0273,-0.0262,-0.0258,-0.0234,-0.0193,-0.019,-0.017,-0.0147,-0.0146,-0.0107,-0.0099,-0.0084,-0.0059,-0.0061,-0.0035,-0.0017,-0.0015,-0.0056,-0.0061,-0.0064,-0.0072,-0.0032,0,0,0,0,0,-0.0313,-0.0311,-0.0276,-0.0274,-0.0264,-0.0228,-0.0216,-0.0197,-0.0169,-0.0159,-0.013,-0.0102,-0.0079,-0.0065,-0.0041,-0.0027,0.0002,-0.0023,-0.0027,-0.0031,-0.0031,0.0004,0.0003,0.001,0.001,0.001,0,0,-0.0325,-0.0308,-0.0307,-0.0281,-0.0261,-0.0253,-0.022,-0.0205,-0.0199,-0.0155,-0.0143,-0.0115,-0.0078,-0.0063,-0.0054,-0.0044,-0.0018,-0.0031,-0.0034,-0.0033,0.0004,0.0003,0.0002,0.001,0.001,0.001,0,0,-0.0349,-0.0333,-0.034,-0.0324,-0.0298,-0.0275,-0.0273,-0.0236,-0.0221,-0.0204,-0.0172,-0.0149,-0.0112,-0.0087,-0.007,-0.0079,-0.004,-0.0071,-0.0094,-0.006,-0.006,-0.006,-0.0027,-0.0024,-0.0071,-0.0071,-0.0072,0,-0.0366,-0.0369,-0.0338,-0.0339,-0.0331,-0.0289,-0.0293,-0.0271,-0.0233,-0.0222,-0.0208,-0.0153,-0.0124,-0.0101,-0.0104,-0.0088,-0.0061,-0.0082,-0.0065,-0.0065,-0.0064,-0.003,-0.0025,-0.0074,-0.0074,-0.0073,-0.0073,0,-0.0391,-0.0395,-0.0398,-0.0387,-0.0373,-0.0371,-0.0336,-0.0326,-0.0302,-0.0272,-0.0244,-0.0201,-0.0167,-0.0154,-0.0131,-0.011,-0.0091,-0.0076,-0.0056,-0.0068,-0.0031,-0.0026,-0.0078,-0.0077,-0.0076,-0.0075,0,0,-0.0424,-0.0419,-0.0421,-0.043,-0.0401,-0.0394,-0.0387,-0.0365,-0.0362,-0.0318,-0.0305,-0.0259,-0.0226,-0.0204,-0.0168,-0.0136,-0.0107,-0.0107,-0.0103,-0.0078,-0.003,0.001,0.002,-0.0088,-0.0088,-0.0087,-0.0009,0,-0.0456,-0.0481,-0.0461,-0.0482,-0.0492,-0.0457,-0.0456,-0.0429,-0.0395,-0.0372,-0.0314,-0.0286,-0.0246,-0.0232,-0.0193,-0.0128,-0.0094,-0.013,-0.0019,-0.0016,0.0018,0.0028,0.0015,0.0087,-0.0003,-0.0002,-0.0001,0,-0.0488,-0.0503,-0.0532,-0.0541,-0.0541,-0.0542,-0.0533,-0.0522,-0.0473,-0.0449,-0.04,-0.0348,-0.0291,-0.0259,-0.0149,-0.0173,-0.0108,-0.0055,-0.0051,0.001,0.0035,0.0085,0.0101,0.0009,0.0008,0.0007,0.0006,0,-0.0535,-0.0552,-0.0581,-0.0582,-0.0581,-0.0588,-0.0582,-0.0546,-0.0542,-0.0489,-0.0477,-0.0393,-0.0354,-0.0262,-0.0144,-0.0147,-0.0019,-0.0011,0.0087,0.0091,0.0114,0.0119,0.0063,0.0063,0.0062,0.0062,0.0062,0,-0.0578,-0.0601,-0.0609,-0.0624,-0.0663,-0.0635,-0.0656,-0.0639,-0.0608,-0.0606,-0.0516,-0.0494,-0.0352,-0.0257,-0.0155,-0.0009,-0.0024,0.0089,0.0117,0.0096,0.0098,0.0057,0.0055,0.0065,0.0065,0.0064,0.0063,0,-0.0622,-0.0625,-0.0666,-0.0681,-0.0687,-0.0712,-0.0716,-0.0731,-0.0689,-0.0684,-0.067,-0.0562,-0.0433,-0.0282,-0.0123,-0.0023,0.0108,0.016,0.013,0.0153,0.0196,0.019,0.0276,0.0278,0.028,0.0281,0.0282,0,-0.0645,-0.0671,-0.0714,-0.0745,-0.0753,-0.0781,-0.0806,-0.0781,-0.0786,-0.0729,-0.073,-0.0601,-0.0513,-0.0247,-0.0043,0.016,0.0154,0.0267,0.0261,0.0201,0.0219,0.0211,0.0203,0.0269,0.027,0.0271,0.0272,0,-0.069,-0.0707,-0.0741,-0.081,-0.0848,-0.0892,-0.0912,-0.093,-0.0898,-0.0884,-0.0829,-0.075,-0.0475,-0.0242,0.0044,0.0165,0.0237,0.0292,0.0245,0.0218,0.0202,0.0217,0.0209,0.028,0.0279,0.0278,0.0278,0.0278,-0.0718,-0.0762,-0.0811,-0.0875,-0.0926,-0.0983,-0.1019,-0.1033,-0.1047,-0.0997,-0.0901,-0.0757,-0.0505,-0.0101,0.0113,0.0328,0.0311,0.0369,0.0363,0.0357,0.0343,0.0332,0.0431,0.0431,0.0431,0.0431,0.0431,0,-0.0742,-0.0799,-0.0869,-0.0948,-0.1013,-0.1026,-0.1078,-0.109,-0.1113,-0.1028,-0.0942,-0.0667,-0.0381,-0.0115,0.0222,0.0417,0.0406,0.046,0.0399,0.0391,0.0384,0.0368,0.0464,0.0464,0.0465,0.0465,0,0,-0.0758,-0.083,-0.0876,-0.0997,-0.1054,-0.1126,-0.1156,-0.1166,-0.1109,-0.1035,-0.0916,-0.0706,-0.0389,-0.0144,0.0115,0.0295,0.0295,0.0324,0.0279,0.017,0.016,0.0316,0.0281,0,0,0,0,0]}],[{"header":{"parameterUnit":"m.s-1","parameterCategory":2,"la1":30.2991,"la2":30.254,"lo1":-89.0895,"lo2":-89.0444,"dx":0.0017,"dy":0.0017,"nx":28,"ny":28,"refTime":"2022-11-15T09:00:00:Z","depth":"4","parameterNumber":2,"parameterNumberName":"U-component_of_CURRENTS"},"data":[0,0,0,0,0,0,0,0,0,0,0,0,0,0,0,0,0,0,0,0,0,0,0,0,0,0,0,0,0,0,0,0,0,0,0,0,0,0,0,0,0,0,0,0,0,0,0,0,0,0,0,0,0,0,0,0,0,0,-0.1548,-0.1548,0,-0.1602,-0.1603,-0.1604,-0.1639,-0.1639,-0.1639,-0.1639,-0.1696,-0.1698,-0.1699,0,0,0,0,0,0,0,0,0,0,0,0,0,-0.1471,-0.1472,-0.1548,-0.1548,-0.1549,-0.1602,-0.1603,-0.1604,-0.1638,-0.1639,-0.1639,-0.164,-0.1696,-0.1697,-0.1699,0,0,0,0,0,0,0,0,0,0,0,0,0,-0.1512,-0.1472,-0.1547,-0.1574,-0.1577,-0.1602,-0.1603,-0.1604,-0.1638,-0.1639,-0.1639,-0.164,-0.1696,-0.1697,-0.1699,-0.1701,0,0,-0.1705,-0.1706,0,0,0,0,0,0,0,0,-0.1509,-0.1514,-0.1569,-0.1572,-0.1576,-0.1615,-0.1597,-0.1637,-0.1638,-0.1614,-0.1639,-0.164,-0.167,-0.1674,-0.1681,-0.1704,-0.1706,-0.1705,-0.1706,-0.1707,-0.1707,0,0,0,0,0,0,0,-0.1506,-0.1512,-0.1568,-0.157,-0.1574,-0.1582,-0.1588,-0.1605,-0.1638,-0.1616,-0.1619,-0.1627,-0.1672,-0.1679,-0.1683,-0.1707,-0.1705,-0.1706,-0.1708,-0.1708,-0.1798,-0.1799,0,0,0,0,0,0,-0.1502,-0.1509,-0.1566,-0.157,-0.1544,-0.1583,-0.159,-0.1601,-0.1637,-0.1644,-0.1626,-0.1628,-0.1676,-0.1681,-0.1685,-0.1753,-0.1707,-0.1708,-0.171,-0.1796,-0.1798,-0.1799,0,0,0,0,0,0,-0.15,-0.1506,-0.1564,-0.1542,-0.155,-0.1584,-0.1596,-0.1602,-0.1636,-0.1646,-0.1652,-0.1657,-0.1677,-0.1683,-0.1723,-0.1753,-0.1709,-0.1711,-0.1795,-0.1797,-0.1799,-0.1847,0,0,0,0,0,0,-0.1498,-0.1505,-0.1525,-0.1541,-0.1551,-0.1595,-0.1596,-0.1603,-0.1639,-0.1642,-0.1673,-0.1678,-0.1678,-0.172,-0.1725,-0.1754,-0.1712,-0.1793,-0.1796,-0.1798,-0.1844,-0.185,-0.1856,0,0,0,0,0,-0.1495,-0.1513,-0.1525,-0.1533,-0.1572,-0.1596,-0.1603,-0.1627,-0.164,-0.1659,-0.1682,-0.1678,-0.1738,-0.1723,-0.1728,-0.1759,-0.1792,-0.1795,-0.1798,-0.1841,-0.1849,-0.1856,0,0,0,0,0,0,-0.1491,-0.1519,-0.1532,-0.156,-0.1585,-0.1603,-0.1626,-0.1642,-0.1676,-0.1687,-0.1695,-0.1701,-0.1747,-0.1746,-0.1729,-0.1791,-0.1765,-0.1769,-0.1796,-0.1803,-0.1809,-0.1802,-0.1714,0,0,0,0,0,-0.1499,-0.1521,-0.1546,-0.1571,-0.1585,-0.1612,-0.163,-0.1648,-0.1673,-0.169,-0.1712,-0.1736,-0.1759,-0.1776,-0.1794,-0.1829,-0.1816,-0.1852,-0.1858,-0.1863,-0.1862,-0.187,-0.1876,-0.1809,-0.1809,-0.1809,0,0,-0.1505,-0.1524,-0.1538,-0.1573,-0.1595,-0.1621,-0.1625,-0.166,-0.1691,-0.169,-0.1745,-0.1761,-0.1773,-0.1813,-0.1833,-0.1819,-0.1877,-0.1867,-0.1871,-0.1867,-0.1873,-0.188,-0.1885,-0.1811,-0.181,-0.181,0,0,-0.1518,-0.1547,-0.1567,-0.1591,-0.1629,-0.1645,-0.1662,-0.1697,-0.1725,-0.1771,-0.178,-0.1814,-0.1852,-0.1866,-0.1876,-0.1927,-0.1909,-0.1938,-0.1964,-0.1973,-0.1978,-0.1983,-0.1975,-0.1979,-0.194,-0.194,-0.194,0,-0.1528,-0.1555,-0.1577,-0.1603,-0.1629,-0.1659,-0.1689,-0.1719,-0.1767,-0.1791,-0.1797,-0.1859,-0.1875,-0.1916,-0.1935,-0.1941,-0.1935,-0.1936,-0.198,-0.1984,-0.1988,-0.1979,-0.1982,-0.1943,-0.1943,-0.1942,-0.1942,0,-0.1544,-0.1581,-0.1596,-0.1639,-0.1669,-0.1701,-0.1741,-0.1782,-0.1818,-0.1843,-0.19,-0.1922,-0.1953,-0.197,-0.197,-0.2011,-0.1994,-0.1986,-0.1958,-0.1997,-0.1986,-0.1988,-0.1947,-0.1946,-0.1945,-0.1944,0,0,-0.1525,-0.1595,-0.1604,-0.1633,-0.1694,-0.1715,-0.1775,-0.1826,-0.1865,-0.1912,-0.1956,-0.2003,-0.2012,-0.2024,-0.2033,-0.2045,-0.2071,-0.2031,-0.203,-0.2018,-0.2079,-0.1953,-0.1943,-0.2071,-0.2072,-0.2073,-0.2061,0,-0.1534,-0.1585,-0.1622,-0.168,-0.1708,-0.1762,-0.1808,-0.1861,-0.191,-0.196,-0.1992,-0.2035,-0.2033,-0.2054,-0.2068,-0.2076,-0.208,-0.2074,-0.2048,-0.2047,-0.1925,-0.1942,-0.2075,-0.2062,-0.2063,-0.2063,-0.2063,0,-0.1529,-0.1568,-0.1624,-0.17,-0.1718,-0.1759,-0.1838,-0.1886,-0.1959,-0.1995,-0.2042,-0.2065,-0.2106,-0.2092,-0.2114,-0.2111,-0.2098,-0.2094,-0.2093,-0.1956,-0.1924,-0.2016,-0.2067,-0.2067,-0.2066,-0.2066,-0.2066,0,-0.1484,-0.1567,-0.1613,-0.164,-0.1727,-0.1769,-0.1819,-0.1897,-0.1941,-0.2019,-0.2051,-0.2098,-0.2124,-0.2127,-0.2125,-0.2124,-0.213,-0.2125,-0.1994,-0.1985,-0.2082,-0.2078,-0.2125,-0.2125,-0.2125,-0.2125,-0.2125,0,-0.1459,-0.1499,-0.16,-0.1621,-0.168,-0.175,-0.1815,-0.1872,-0.1952,-0.1987,-0.2062,-0.2084,-0.2134,-0.2145,-0.2134,-0.2063,-0.2135,-0.1992,-0.1971,-0.2103,-0.2101,-0.2084,-0.2079,-0.2124,-0.2124,-0.2124,-0.2124,0,-0.1391,-0.1462,-0.152,-0.1623,-0.1658,-0.1698,-0.1805,-0.1839,-0.1929,-0.1978,-0.2002,-0.2083,-0.209,-0.2117,-0.212,-0.2055,-0.2016,-0.197,-0.2105,-0.2094,-0.1863,-0.1862,-0.1819,-0.1814,-0.181,-0.1807,-0.1804,0,-0.1356,-0.1381,-0.1503,-0.1535,-0.1585,-0.166,-0.1699,-0.181,-0.1842,-0.1953,-0.1955,-0.2011,-0.2042,-0.1943,-0.199,-0.1948,-0.1924,-0.1886,-0.1874,-0.1846,-0.1832,-0.1836,-0.184,-0.1798,-0.1797,-0.1796,-0.1795,0,-0.1282,-0.134,-0.1384,-0.1455,-0.151,-0.1565,-0.1633,-0.1646,-0.1753,-0.1858,-0.185,-0.1848,-0.1853,-0.1852,-0.1827,-0.1801,-0.1904,-0.1844,-0.1852,-0.1841,-0.182,-0.1811,-0.1819,-0.1781,-0.1783,-0.1784,-0.1785,0,-0.1224,-0.1238,-0.1304,-0.1349,-0.142,-0.1436,-0.1494,-0.1521,-0.157,-0.1693,-0.1686,-0.175,-0.1829,-0.1774,-0.1758,-0.1717,-0.1691,-0.1628,-0.1647,-0.1662,-0.1616,-0.1567,-0.1424,0,0,0,0,0,-0.1155,-0.1151,-0.1188,-0.1235,-0.1299,-0.1336,-0.1427,-0.1485,-0.1596,-0.1542,-0.1608,-0.1604,-0.1583,-0.1627,-0.155,-0.1689,-0.1699,-0.1592,-0.1637,-0.1706,-0.1722,-0.1682,0,0,0,0,0,0,-0.1107,-0.1134,-0.1145,-0.1122,-0.1128,-0.1182,-0.1233,-0.1311,-0.1295,-0.1414,-0.1413,-0.1499,-0.1508,-0.1597,-0.1515,-0.1525,-0.1517,-0.1641,-0.1637,-0.1697,-0.1711,-0.1724,-0.1689,0,0,0,0,0]},{"header":{"parameterUnit":"m.s-1","parameterCategory":2,"la1":30.2991,"la2":30.254,"lo1":-89.0895,"lo2":-89.0444,"dx":0.0017,"dy":0.0017,"nx":28,"ny":28,"refTime":"2022-11-15T09:00:00:Z","depth":"4","parameterNumber":3,"parameterNumberName":"V-component_of_CURRENTS"},"data":[0,0,0,0,0,0,0,0,0,0,0,0,0,0,0,0,0,0,0,0,0,0,0,0,0,0,0,0,0,0,0,0,0,0,0,0,0,0,0,0,0,0,0,0,0,0,0,0,0,0,0,0,0,0,0,0,0,0,-0.0038,-0.0038,0,0.0003,0.0004,0.0004,0.0031,0.0031,0.0032,0.0032,0.0081,0.0083,0.0084,0,0,0,0,0,0,0,0,0,0,0,0,0,-0.0069,-0.0069,-0.0038,-0.0038,-0.0037,0.0003,0.0004,0.0005,0.0031,0.0031,0.0032,0.0032,0.0081,0.0082,0.0084,0,0,0,0,0,0,0,0,0,0,0,0,0,-0.0044,-0.0069,-0.0038,-0.0019,-0.0017,0.0003,0.0004,0.0005,0.0031,0.0031,0.0032,0.0032,0.0081,0.0082,0.0084,0.009,0,0,0.0089,0.009,0,0,0,0,0,0,0,0,-0.0046,-0.0043,-0.0022,-0.002,-0.0018,0.0012,0.0011,0.0034,0.0031,0.0013,0.0032,0.0032,0.0059,0.0062,0.007,0.0092,0.0094,0.009,0.0091,0.0091,0.0092,0,0,0,0,0,0,0,-0.0048,-0.0045,-0.0022,-0.0022,-0.0019,-0.0004,-0.0,0.0016,0.0034,0.0015,0.0017,0.0021,0.006,0.0068,0.0071,0.0095,0.0089,0.0091,0.0092,0.0093,0.0125,0.0124,0,0,0,0,0,0,-0.0055,-0.0047,-0.0023,-0.002,-0.0032,-0.0003,0.0001,0.0002,0.0034,0.0039,0.0021,0.0022,0.0065,0.0069,0.0073,0.0073,0.0091,0.0093,0.0094,0.0125,0.0125,0.0124,0,0,0,0,0,0,-0.0055,-0.0053,-0.0025,-0.0032,-0.0028,-0.0003,-0.0001,0.0003,0.001,0.0039,0.0044,0.0023,0.0065,0.007,0.0082,0.0076,0.0094,0.0095,0.0125,0.0125,0.0125,0.0079,0,0,0,0,0,0,-0.0057,-0.0054,-0.0058,-0.0033,-0.0028,-0.0019,-0.0001,0.0004,0.0012,0.0014,0.0042,0.0047,0.0066,0.0079,0.0084,0.0078,0.0097,0.0125,0.0125,0.0125,0.0081,0.0077,0.0074,0,0,0,0,0,-0.0058,-0.0065,-0.0058,-0.0056,-0.0033,-0.0019,-0.0015,0.0004,0.0012,0.0011,0.0029,0.0046,0.008,0.008,0.0086,0.0081,0.0126,0.0125,0.0125,0.0082,0.0078,0.0074,0,0,0,0,0,0,-0.008,-0.0062,-0.0054,-0.0055,-0.0041,-0.0015,-0.0015,-0.0,0.0014,0.0014,0.0043,0.0049,0.0056,0.0075,0.0075,0.0089,0.0106,0.0107,0.0072,0.0068,0.0065,0.0058,0.0098,0,0,0,0,0,-0.0087,-0.0089,-0.0067,-0.0069,-0.0064,-0.004,-0.0033,-0.0021,-0.0003,0.0004,0.0023,0.0044,0.0059,0.0068,0.0084,0.0092,0.0116,0.0093,0.009,0.0087,0.0085,0.0113,0.0112,0.0123,0.0123,0.0123,0,0,-0.0097,-0.0088,-0.0089,-0.0074,-0.0063,-0.0061,-0.0036,-0.0029,-0.0028,0.0006,0.0011,0.0031,0.0058,0.0065,0.0071,0.008,0.0096,0.0086,0.0083,0.0083,0.0113,0.0112,0.0111,0.0123,0.0123,0.0123,0,0,-0.0118,-0.0109,-0.0118,-0.0109,-0.0094,-0.008,-0.008,-0.0057,-0.0048,-0.004,-0.0015,0.0001,0.0024,0.0043,0.0055,0.0044,0.0076,0.005,0.0028,0.0056,0.0055,0.0055,0.0082,0.0084,0.005,0.0049,0.0049,0,-0.0131,-0.0138,-0.0118,-0.0123,-0.012,-0.0092,-0.0099,-0.0086,-0.0062,-0.0056,-0.0046,-0.0009,0.0013,0.0027,0.0024,0.0036,0.0058,0.004,0.0051,0.0051,0.0052,0.008,0.0083,0.0047,0.0047,0.0048,0.0048,0,-0.0154,-0.0163,-0.0167,-0.0165,-0.0159,-0.0162,-0.0139,-0.0136,-0.0121,-0.0101,-0.0085,-0.0053,-0.003,-0.002,-0.0001,0.0012,0.0028,0.0042,0.0059,0.0048,0.0078,0.0083,0.0044,0.0045,0.0045,0.0046,0,0,-0.0179,-0.0184,-0.0187,-0.0198,-0.0183,-0.0182,-0.0183,-0.0172,-0.0175,-0.0145,-0.014,-0.0108,-0.0083,-0.0067,-0.0038,-0.0012,0.001,0.0013,0.0015,0.0036,0.0072,0.0076,0.0081,0.0026,0.0026,0.0026,0.0091,0,-0.0207,-0.0234,-0.0222,-0.0247,-0.026,-0.0238,-0.0243,-0.0228,-0.0207,-0.0195,-0.0151,-0.0135,-0.0102,-0.0093,-0.0062,-0.0008,0.0019,-0.0009,0.0083,0.0086,0.0088,0.0086,0.0028,0.0094,0.0095,0.0096,0.0096,0,-0.0232,-0.025,-0.0281,-0.0298,-0.0301,-0.0309,-0.0313,-0.031,-0.0279,-0.0264,-0.023,-0.019,-0.0147,-0.012,-0.0031,-0.005,0.0004,0.0049,0.0053,0.0075,0.0098,0.011,0.0105,0.0104,0.0103,0.0103,0.0102,0,-0.0265,-0.029,-0.0321,-0.0325,-0.0337,-0.0349,-0.0352,-0.0333,-0.0336,-0.0302,-0.0297,-0.0233,-0.0204,-0.0127,-0.003,-0.0031,0.0072,0.0083,0.0139,0.014,0.0137,0.0137,0.0142,0.0142,0.0142,0.0142,0.0142,0,-0.0295,-0.0321,-0.0344,-0.036,-0.0403,-0.0389,-0.0419,-0.0411,-0.0397,-0.0402,-0.0334,-0.0318,-0.0205,-0.0129,-0.0041,0.0064,0.0066,0.0135,0.0156,0.0117,0.0113,0.0141,0.0139,0.0144,0.0144,0.0143,0.0143,0,-0.0321,-0.0335,-0.0378,-0.0408,-0.042,-0.0449,-0.0473,-0.0491,-0.0468,-0.0471,-0.0463,-0.0379,-0.0279,-0.0159,-0.0028,0.0044,0.0147,0.0183,0.0132,0.015,0.0199,0.0195,0.0248,0.0248,0.0249,0.0249,0.025,0,-0.0333,-0.0359,-0.0418,-0.0453,-0.047,-0.051,-0.054,-0.0533,-0.0541,-0.0508,-0.0507,-0.0416,-0.0348,-0.0155,-0.0028,0.0143,0.0166,0.0219,0.0208,0.0195,0.021,0.0205,0.02,0.0251,0.0251,0.0251,0.0251,0,-0.0358,-0.0385,-0.0422,-0.0499,-0.0545,-0.0594,-0.0623,-0.0635,-0.062,-0.0605,-0.0543,-0.0437,-0.032,-0.0161,-0.0024,0.0097,0.0185,0.0225,0.0224,0.0215,0.0199,0.0213,0.0207,0.0253,0.0253,0.0252,0.0252,0,-0.0375,-0.0416,-0.0472,-0.0537,-0.0603,-0.0652,-0.0667,-0.0665,-0.0665,-0.0613,-0.0595,-0.0461,-0.0378,-0.0185,-0.006,0.0064,0.0092,0.0127,0.0132,0.0131,0.0081,0.0042,0.0065,0,0,0,0,0,-0.0382,-0.0432,-0.0503,-0.0578,-0.0646,-0.0679,-0.0711,-0.0712,-0.0696,-0.0661,-0.0624,-0.0513,-0.0317,-0.0223,-0.01,-0.0053,0.011,0.0096,0.0151,0.0264,0.0262,0.0223,0,0,0,0,0,0,-0.0392,-0.0457,-0.0504,-0.0595,-0.0649,-0.0718,-0.0739,-0.073,-0.0693,-0.0659,-0.0551,-0.0489,-0.0292,-0.0392,-0.0101,-0.0062,-0.0011,0.0193,0.0195,0.0265,0.0263,0.0261,0.022,0,0,0,0,0]}]]